Time,TemperatureF,DewpointF,PressureIn,WindDirection,WindDirectionDegrees,WindSpeedMPH,WindSpeedGustMPH,Humidity,HourlyPrecipIn,Conditions,Clouds,dailyrainin,SoftwareType,DateUTC
2013-01-04 00:00:00,14.9,-4.0,29.88,North,0,0.0,0.0,42,0.00,,OVC080,0.00,VWS V13.01,2013-01-04 05:00:00,
2013-01-04 00:02:00,14.9,-4.0,29.88,North,0,0.0,0.0,42,0.00,,OVC080,0.00,VWS V13.01,2013-01-04 05:02:00,
2013-01-04 00:03:00,14.9,-4.0,29.88,North,0,0.0,0.0,42,0.00,,OVC080,0.00,VWS V13.01,2013-01-04 05:03:00,
2013-01-04 00:09:00,15.3,-2.7,29.88,North,0,0.0,0.0,44,0.00,,OVC080,0.00,VWS V13.01,2013-01-04 05:09:00,
2013-01-04 00:14:00,15.4,-2.6,29.88,North,0,0.0,0.0,44,0.00,,OVC080,0.00,VWS V13.01,2013-01-04 05:14:00,
2013-01-04 00:19:00,15.6,-2.4,29.88,North,0,0.0,0.0,44,0.00,,OVC080,0.00,VWS V13.01,2013-01-04 05:19:00,
2013-01-04 00:24:00,15.4,-3.0,29.88,North,0,0.0,0.0,43,0.00,,OVC080,0.00,VWS V13.01,2013-01-04 05:24:00,
2013-01-04 00:29:00,15.3,-2.7,29.88,North,0,0.0,0.0,44,0.00,,OVC080,0.00,VWS V13.01,2013-01-04 05:29:00,
2013-01-04 00:34:00,15.3,-2.7,29.88,North,0,0.0,0.0,44,0.00,,OVC080,0.00,VWS V13.01,2013-01-04 05:34:00,
2013-01-04 00:39:00,15.3,-2.7,29.85,North,0,0.0,0.0,44,0.00,,OVC080,0.00,VWS V13.01,2013-01-04 05:39:00,
2013-01-04 00:44:00,15.4,-2.6,29.85,North,0,0.0,0.0,44,0.00,,BKN032,0.00,VWS V13.01,2013-01-04 05:44:00,
2013-01-04 00:49:00,15.4,-2.6,29.85,North,0,0.0,0.0,44,0.00,,BKN032,0.00,VWS V13.01,2013-01-04 05:49:00,
2013-01-04 00:54:00,15.3,-2.7,29.85,North,0,0.0,0.0,44,0.00,,BKN032,0.00,VWS V13.01,2013-01-04 05:54:00,
2013-01-04 00:59:00,15.3,-2.7,29.85,North,0,0.0,0.0,44,0.00,,BKN032,0.00,VWS V13.01,2013-01-04 05:59:00,
2013-01-04 01:04:00,15.4,-2.6,29.85,North,0,0.0,0.0,44,0.00,,OVC030,0.00,VWS V13.01,2013-01-04 06:04:00,
2013-01-04 01:09:00,15.6,-1.9,29.85,North,0,0.0,0.0,45,0.00,,OVC030,0.00,VWS V13.01,2013-01-04 06:09:00,
2013-01-04 01:14:00,16.0,-1.6,29.85,North,0,0.0,0.0,45,0.00,,OVC030,0.00,VWS V13.01,2013-01-04 06:14:00,
2013-01-04 01:19:00,16.3,-1.3,29.85,North,0,0.0,0.0,45,0.00,,OVC030,0.00,VWS V13.01,2013-01-04 06:19:00,
2013-01-04 01:24:00,16.5,-1.1,29.85,North,0,0.0,0.0,45,0.00,,OVC030,0.00,VWS V13.01,2013-01-04 06:24:00,
2013-01-04 01:29:00,16.5,-1.1,29.85,North,0,0.0,0.0,45,0.00,,OVC030,0.00,VWS V13.01,2013-01-04 06:29:00,
2013-01-04 01:34:00,16.5,-1.1,29.85,North,0,0.0,0.0,45,0.00,,OVC030,0.00,VWS V13.01,2013-01-04 06:34:00,
2013-01-04 01:39:00,16.7,-0.9,29.85,North,0,0.0,0.0,45,0.00,,OVC030,0.00,VWS V13.01,2013-01-04 06:39:00,
2013-01-04 01:44:00,16.9,-0.8,29.85,North,0,0.0,0.0,45,0.00,,CLR,0.00,VWS V13.01,2013-01-04 06:44:00,
2013-01-04 01:49:00,16.9,-0.8,29.85,North,0,0.0,0.0,45,0.00,,CLR,0.00,VWS V13.01,2013-01-04 06:49:00,
2013-01-04 01:54:00,16.7,-0.9,29.85,North,0,0.0,0.0,45,0.00,,CLR,0.00,VWS V13.01,2013-01-04 06:54:00,
2013-01-04 01:59:00,16.5,-1.1,29.85,North,0,0.0,0.0,45,0.00,,CLR,0.00,VWS V13.01,2013-01-04 06:59:00,
2013-01-04 02:04:00,16.5,-1.1,29.85,North,0,0.0,0.0,45,0.00,,CLR,0.00,VWS V13.01,2013-01-04 07:04:00,
2013-01-04 02:09:00,16.5,-1.1,29.85,North,0,0.0,0.0,45,0.00,,CLR,0.00,VWS V13.01,2013-01-04 07:09:00,
2013-01-04 02:14:00,16.5,-1.1,29.85,North,0,0.0,0.0,45,0.00,,CLR,0.00,VWS V13.01,2013-01-04 07:14:00,
2013-01-04 02:19:00,16.2,-1.0,29.85,North,0,0.0,0.0,46,0.00,,CLR,0.00,VWS V13.01,2013-01-04 07:19:00,
2013-01-04 02:24:00,16.0,-1.1,29.85,North,0,0.0,0.0,46,0.00,,CLR,0.00,VWS V13.01,2013-01-04 07:24:00,
2013-01-04 02:29:00,15.6,-1.0,29.85,North,0,0.0,0.0,47,0.00,,CLR,0.00,VWS V13.01,2013-01-04 07:29:00,
2013-01-04 02:34:00,15.3,-1.3,29.85,North,0,0.0,0.0,47,0.00,,CLR,0.00,VWS V13.01,2013-01-04 07:34:00,
2013-01-04 02:39:00,15.3,-1.3,29.85,North,0,0.0,0.0,47,0.00,,CLR,0.00,VWS V13.01,2013-01-04 07:39:00,
2013-01-04 02:44:00,15.8,-0.4,29.85,North,0,0.0,0.0,48,0.00,,CLR,0.00,VWS V13.01,2013-01-04 07:44:00,
2013-01-04 02:49:00,16.5,0.3,29.85,North,0,0.0,0.0,48,0.00,,CLR,0.00,VWS V13.01,2013-01-04 07:49:00,
2013-01-04 02:54:00,17.1,1.2,29.88,North,0,0.0,0.0,49,0.00,,OVC070,0.00,VWS V13.01,2013-01-04 07:54:00,
2013-01-04 02:59:00,18.0,2.0,29.88,North,0,0.0,0.0,49,0.00,,OVC070,0.00,VWS V13.01,2013-01-04 07:59:00,
2013-01-04 03:04:00,19.4,3.4,29.88,North,0,0.0,0.0,49,0.00,,OVC070,0.00,VWS V13.01,2013-01-04 08:04:00,
2013-01-04 03:09:00,20.3,4.2,29.85,North,0,0.0,0.0,49,0.00,,OVC070,0.00,VWS V13.01,2013-01-04 08:09:00,
2013-01-04 03:14:00,21.0,4.9,29.85,North,0,0.0,0.0,49,0.00,,OVC070,0.00,VWS V13.01,2013-01-04 08:14:00,
2013-01-04 03:19:00,21.4,5.6,29.85,North,0,0.0,0.0,50,0.00,,OVC070,0.00,VWS V13.01,2013-01-04 08:19:00,
2013-01-04 03:24:00,21.7,6.0,29.85,North,0,0.0,0.0,50,0.00,,OVC070,0.00,VWS V13.01,2013-01-04 08:24:00,
2013-01-04 03:29:00,21.6,5.8,29.85,North,0,0.0,0.0,50,0.00,,OVC070,0.00,VWS V13.01,2013-01-04 08:29:00,
2013-01-04 03:34:00,20.7,5.0,29.85,North,0,0.0,0.0,50,0.00,,OVC070,0.00,VWS V13.01,2013-01-04 08:34:00,
2013-01-04 03:39:00,19.8,3.7,29.85,North,0,0.0,0.0,49,0.00,,OVC070,0.00,VWS V13.01,2013-01-04 08:39:00,
2013-01-04 03:45:00,19.2,3.6,29.85,North,0,0.0,0.0,50,0.00,,OVC070,0.00,VWS V13.01,2013-01-04 08:45:00,
2013-01-04 03:49:00,18.9,3.3,29.85,North,0,0.0,0.0,50,0.00,,OVC070,0.00,VWS V13.01,2013-01-04 08:49:00,
2013-01-04 03:55:00,18.9,3.3,29.85,North,0,0.0,0.0,50,0.00,,BKN080,0.00,VWS V13.01,2013-01-04 08:55:00,
2013-01-04 04:00:00,18.9,3.7,29.85,North,0,0.0,0.0,51,0.00,,BKN080,0.00,VWS V13.01,2013-01-04 09:00:00,
2013-01-04 04:05:00,19.0,4.3,29.85,North,0,0.0,0.0,52,0.00,,BKN080,0.00,VWS V13.01,2013-01-04 09:05:00,
2013-01-04 04:10:00,19.2,4.9,29.85,North,0,0.0,0.0,53,0.00,,BKN080,0.00,VWS V13.01,2013-01-04 09:10:00,
2013-01-04 04:15:00,19.6,5.2,29.85,North,0,0.0,0.0,53,0.00,,BKN080,0.00,VWS V13.01,2013-01-04 09:15:00,
2013-01-04 04:20:00,19.9,5.6,29.85,North,0,0.0,0.0,53,0.00,,BKN080,0.00,VWS V13.01,2013-01-04 09:20:00,
2013-01-04 04:25:00,20.1,6.2,29.85,North,0,0.0,0.0,54,0.00,,BKN080,0.00,VWS V13.01,2013-01-04 09:25:00,
2013-01-04 04:30:00,20.3,6.3,29.85,North,0,0.0,0.0,54,0.00,,BKN080,0.00,VWS V13.01,2013-01-04 09:30:00,
2013-01-04 04:35:00,19.8,5.8,29.85,North,0,0.0,0.0,54,0.00,,BKN080,0.00,VWS V13.01,2013-01-04 09:35:00,
2013-01-04 04:40:00,19.4,5.9,29.85,North,0,0.0,0.0,55,0.00,,BKN080,0.00,VWS V13.01,2013-01-04 09:40:00,
2013-01-04 04:45:00,19.2,5.7,29.85,North,0,0.0,0.0,55,0.00,,BKN080,0.00,VWS V13.01,2013-01-04 09:45:00,
2013-01-04 04:50:00,19.0,5.5,29.85,North,0,0.0,0.0,55,0.00,,BKN080,0.00,VWS V13.01,2013-01-04 09:50:00,
2013-01-04 04:55:00,18.9,5.4,29.85,North,0,0.0,0.0,55,0.00,,BKN080,0.00,VWS V13.01,2013-01-04 09:55:00,
2013-01-04 05:00:00,18.7,5.2,29.85,North,0,0.0,0.0,55,0.00,,BKN080,0.00,VWS V13.01,2013-01-04 10:00:00,
2013-01-04 05:05:00,18.9,5.4,29.85,North,0,0.0,0.0,55,0.00,,BKN080,0.00,VWS V13.01,2013-01-04 10:05:00,
2013-01-04 05:10:00,19.0,5.9,29.85,North,0,0.0,0.0,56,0.00,,BKN080,0.00,VWS V13.01,2013-01-04 10:10:00,
2013-01-04 05:15:00,19.2,6.1,29.85,North,0,0.0,0.0,56,0.00,,BKN080,0.00,VWS V13.01,2013-01-04 10:15:00,
2013-01-04 05:20:00,19.6,6.4,29.85,North,0,0.0,0.0,56,0.00,,BKN080,0.00,VWS V13.01,2013-01-04 10:20:00,
2013-01-04 05:25:00,19.8,6.6,29.85,North,0,0.0,0.0,56,0.00,,BKN080,0.00,VWS V13.01,2013-01-04 10:25:00,
2013-01-04 05:30:00,19.6,6.4,29.85,North,0,0.0,0.0,56,0.00,,BKN080,0.00,VWS V13.01,2013-01-04 10:30:00,
2013-01-04 05:35:00,19.6,6.4,29.85,North,0,0.0,0.0,56,0.00,,BKN034,0.00,VWS V13.01,2013-01-04 10:35:00,
2013-01-04 05:40:00,19.4,6.3,29.85,North,0,0.0,0.0,56,0.00,,BKN034,0.00,VWS V13.01,2013-01-04 10:40:00,
2013-01-04 05:45:00,19.4,6.7,29.85,North,0,0.0,0.0,57,0.00,,BKN034,0.00,VWS V13.01,2013-01-04 10:45:00,
2013-01-04 05:50:00,19.2,6.5,29.85,North,0,0.0,0.0,57,0.00,,BKN034,0.00,VWS V13.01,2013-01-04 10:50:00,
2013-01-04 05:55:00,19.2,6.9,29.85,North,0,0.0,0.0,58,0.00,,OVC034,0.00,VWS V13.01,2013-01-04 10:55:00,
2013-01-04 06:00:00,19.4,7.4,29.85,North,0,0.0,0.0,59,0.00,,OVC034,0.00,VWS V13.01,2013-01-04 11:00:00,
2013-01-04 06:05:00,19.8,8.1,29.85,North,0,0.0,0.0,60,0.00,,OVC034,0.00,VWS V13.01,2013-01-04 11:05:00,
2013-01-04 06:10:00,20.1,8.8,29.85,North,0,0.0,0.0,61,0.00,,OVC034,0.00,VWS V13.01,2013-01-04 11:10:00,
2013-01-04 06:15:00,20.5,9.6,29.85,North,0,0.0,0.0,62,0.00,,OVC034,0.00,VWS V13.01,2013-01-04 11:15:00,
2013-01-04 06:20:00,21.2,10.6,29.85,North,0,0.0,0.0,63,0.00,,OVC034,0.00,VWS V13.01,2013-01-04 11:20:00,
2013-01-04 06:25:00,21.4,10.8,29.85,North,0,0.0,0.0,63,0.00,,OVC034,0.00,VWS V13.01,2013-01-04 11:25:00,
2013-01-04 06:30:00,21.6,10.6,29.85,North,0,0.0,0.0,62,0.00,,OVC034,0.00,VWS V13.01,2013-01-04 11:30:00,
2013-01-04 06:35:00,21.7,10.7,29.85,North,0,0.0,0.0,62,0.00,,BKN034,0.00,VWS V13.01,2013-01-04 11:35:00,
2013-01-04 06:41:00,21.9,10.9,29.85,North,0,0.0,0.0,62,0.00,,BKN034,0.00,VWS V13.01,2013-01-04 11:41:00,
2013-01-04 06:46:00,22.8,12.5,29.85,North,0,0.0,0.0,64,0.00,,BKN034,0.00,VWS V13.01,2013-01-04 11:46:00,
2013-01-04 06:51:00,23.7,13.3,29.85,North,0,0.0,0.0,64,0.00,,BKN034,0.00,VWS V13.01,2013-01-04 11:51:00,
2013-01-04 06:56:00,24.4,14.0,29.85,North,0,0.0,0.0,64,0.00,,OVC060,0.00,VWS V13.01,2013-01-04 11:56:00,
2013-01-04 07:01:00,25.2,14.4,29.85,North,0,0.0,0.0,63,0.00,,OVC060,0.00,VWS V13.01,2013-01-04 12:01:00,
2013-01-04 07:06:00,25.5,14.7,29.85,North,0,0.0,0.0,63,0.00,,OVC060,0.00,VWS V13.01,2013-01-04 12:06:00,
2013-01-04 07:11:00,25.3,14.2,29.85,North,0,0.0,0.0,62,0.00,,OVC060,0.00,VWS V13.01,2013-01-04 12:11:00,
2013-01-04 07:16:00,25.5,14.0,29.85,North,0,0.0,0.0,61,0.00,,OVC060,0.00,VWS V13.01,2013-01-04 12:16:00,
2013-01-04 07:21:00,25.7,14.1,29.85,North,0,0.0,0.0,61,0.00,,OVC060,0.00,VWS V13.01,2013-01-04 12:21:00,
2013-01-04 07:26:00,25.7,13.8,29.85,North,0,0.0,0.0,60,0.00,,OVC060,0.00,VWS V13.01,2013-01-04 12:26:00,
2013-01-04 07:31:00,25.9,13.5,29.85,North,0,0.0,0.0,59,0.00,,OVC060,0.00,VWS V13.01,2013-01-04 12:31:00,
2013-01-04 07:36:00,26.1,13.3,29.85,North,0,0.0,0.0,58,0.00,,OVC060,0.00,VWS V13.01,2013-01-04 12:36:00,
2013-01-04 07:41:00,26.1,13.3,29.85,North,0,0.0,0.0,58,0.00,,OVC060,0.00,VWS V13.01,2013-01-04 12:41:00,
2013-01-04 07:46:00,26.4,13.3,29.85,North,0,0.0,0.0,57,0.00,,OVC060,0.00,VWS V13.01,2013-01-04 12:46:00,
2013-01-04 07:51:00,26.6,13.0,29.85,North,0,0.0,0.0,56,0.00,,OVC060,0.00,VWS V13.01,2013-01-04 12:51:00,
2013-01-04 07:56:00,26.4,12.9,29.85,North,0,0.0,0.0,56,0.00,,OVC060,0.00,VWS V13.01,2013-01-04 12:56:00,
2013-01-04 08:01:00,26.6,12.6,29.85,North,0,0.0,0.0,55,0.00,,OVC060,0.00,VWS V13.01,2013-01-04 13:01:00,
2013-01-04 08:06:00,26.2,11.9,29.85,North,0,0.0,0.0,54,0.00,,OVC060,0.00,VWS V13.01,2013-01-04 13:06:00,
2013-01-04 08:11:00,26.1,11.3,29.85,North,0,0.0,0.0,53,0.00,,OVC035,0.00,VWS V13.01,2013-01-04 13:11:00,
2013-01-04 08:16:00,26.1,11.3,29.85,North,0,0.0,0.0,53,0.00,,OVC035,0.00,VWS V13.01,2013-01-04 13:16:00,
2013-01-04 08:21:00,26.2,11.4,29.85,North,0,0.0,0.0,53,0.00,,OVC035,0.00,VWS V13.01,2013-01-04 13:21:00,
2013-01-04 08:26:00,26.8,12.0,29.85,North,0,0.0,0.0,53,0.00,,OVC035,0.00,VWS V13.01,2013-01-04 13:26:00,
2013-01-04 08:31:00,27.3,12.0,29.85,North,0,0.0,0.0,52,0.00,,OVC035,0.00,VWS V13.01,2013-01-04 13:31:00,
2013-01-04 08:36:00,27.9,12.5,29.85,North,0,0.0,0.0,52,0.00,,OVC035,0.00,VWS V13.01,2013-01-04 13:36:00,
2013-01-04 08:41:00,28.0,12.3,29.85,North,0,0.0,0.0,51,0.00,,OVC035,0.00,VWS V13.01,2013-01-04 13:41:00,
2013-01-04 08:46:00,28.2,12.4,29.85,North,0,0.0,0.0,51,0.00,,OVC035,0.00,VWS V13.01,2013-01-04 13:46:00,
2013-01-04 08:51:00,28.4,11.2,29.85,North,0,0.0,0.0,48,0.00,,OVC035,0.00,VWS V13.01,2013-01-04 13:51:00,
2013-01-04 08:56:00,28.6,10.4,29.85,North,0,0.0,0.0,46,0.00,,OVC035,0.00,VWS V13.01,2013-01-04 13:56:00,
2013-01-04 09:01:00,28.6,9.9,29.85,North,0,0.0,0.0,45,0.00,,OVC035,0.00,VWS V13.01,2013-01-04 14:01:00,
2013-01-04 09:06:00,28.6,9.4,29.85,North,0,0.0,0.0,44,0.00,,OVC035,0.00,VWS V13.01,2013-01-04 14:06:00,
2013-01-04 09:11:00,28.6,8.9,29.85,North,0,0.0,0.0,43,0.00,,OVC035,0.00,VWS V13.01,2013-01-04 14:11:00,
2013-01-04 09:16:00,28.8,9.1,29.85,North,0,0.0,0.0,43,0.00,,OVC035,0.00,VWS V13.01,2013-01-04 14:16:00,
2013-01-04 09:21:00,28.8,8.6,29.85,North,0,0.0,0.0,42,0.00,,OVC035,0.00,VWS V13.01,2013-01-04 14:21:00,
2013-01-04 09:26:00,29.1,8.9,29.85,North,0,0.0,0.0,42,0.00,,OVC035,0.00,VWS V13.01,2013-01-04 14:26:00,
2013-01-04 09:31:00,29.5,9.2,29.85,North,0,0.0,0.0,42,0.00,,OVC041,0.00,VWS V13.01,2013-01-04 14:31:00,
2013-01-04 09:36:00,29.5,8.7,29.85,North,0,0.0,0.0,41,0.00,,OVC041,0.00,VWS V13.01,2013-01-04 14:36:00,
2013-01-04 09:41:00,29.8,9.0,29.85,North,0,0.0,0.0,41,0.00,,OVC041,0.00,VWS V13.01,2013-01-04 14:41:00,
2013-01-04 09:47:00,30.4,9.5,29.85,North,0,0.0,0.0,41,0.00,,OVC041,0.00,VWS V13.01,2013-01-04 14:47:00,
2013-01-04 09:52:00,31.1,9.6,29.85,North,0,0.0,0.0,40,0.00,,BKN043,0.00,VWS V13.01,2013-01-04 14:52:00,
2013-01-04 09:57:00,31.6,10.1,29.85,North,0,0.0,0.0,40,0.00,,BKN043,0.00,VWS V13.01,2013-01-04 14:57:00,
2013-01-04 10:02:00,32.0,9.3,29.85,North,0,0.0,0.0,38,0.00,,BKN043,0.00,VWS V13.01,2013-01-04 15:02:00,
2013-01-04 10:07:00,32.2,9.4,29.85,North,0,0.0,0.0,38,0.00,,BKN043,0.00,VWS V13.01,2013-01-04 15:07:00,
2013-01-04 10:12:00,32.2,8.9,29.85,North,0,0.0,0.0,37,0.00,,BKN043,0.00,VWS V13.01,2013-01-04 15:12:00,
2013-01-04 10:17:00,32.2,8.2,29.85,North,0,0.0,0.0,36,0.00,,BKN043,0.00,VWS V13.01,2013-01-04 15:17:00,
2013-01-04 10:22:00,32.2,8.2,29.82,North,0,0.0,0.0,36,0.00,,BKN043,0.00,VWS V13.01,2013-01-04 15:22:00,
2013-01-04 10:27:00,32.4,8.4,29.82,North,0,0.0,0.0,36,0.00,,BKN043,0.00,VWS V13.01,2013-01-04 15:27:00,
2013-01-04 10:32:00,32.9,8.9,29.82,North,0,0.0,0.0,36,0.00,,OVC047,0.00,VWS V13.01,2013-01-04 15:32:00,
2013-01-04 10:37:00,33.4,8.7,29.82,North,0,0.0,0.0,35,0.00,,OVC047,0.00,VWS V13.01,2013-01-04 15:37:00,
2013-01-04 10:42:00,33.8,8.4,29.82,North,0,0.0,0.0,34,0.00,,OVC047,0.00,VWS V13.01,2013-01-04 15:42:00,
2013-01-04 10:47:00,33.8,8.4,29.82,North,0,0.0,0.0,34,0.00,,OVC047,0.00,VWS V13.01,2013-01-04 15:47:00,
2013-01-04 10:52:00,34.7,9.2,29.82,North,0,0.0,0.0,34,0.00,,OVC047,0.00,VWS V13.01,2013-01-04 15:52:00,
2013-01-04 10:57:00,34.7,8.6,29.82,North,0,0.0,0.0,33,0.00,,OVC047,0.00,VWS V13.01,2013-01-04 15:57:00,
2013-01-04 11:02:00,34.7,8.6,29.82,North,0,0.0,0.0,33,0.00,,OVC047,0.00,VWS V13.01,2013-01-04 16:02:00,
2013-01-04 11:07:00,34.5,8.4,29.79,North,0,0.0,0.0,33,0.00,,OVC047,0.00,VWS V13.01,2013-01-04 16:07:00,
2013-01-04 11:12:00,34.0,7.2,29.79,North,0,0.0,0.0,32,0.00,,OVC047,0.00,VWS V13.01,2013-01-04 16:12:00,
2013-01-04 11:17:00,34.2,8.1,29.79,North,0,0.0,0.0,33,0.00,,OVC047,0.00,VWS V13.01,2013-01-04 16:17:00,
2013-01-04 11:22:00,34.3,8.2,29.79,North,0,0.0,0.0,33,0.00,,OVC047,0.00,VWS V13.01,2013-01-04 16:22:00,
2013-01-04 11:27:00,34.5,8.4,29.79,North,0,0.0,0.0,33,0.00,,OVC047,0.00,VWS V13.01,2013-01-04 16:27:00,
2013-01-04 11:32:00,35.2,8.4,29.79,North,0,0.0,0.0,32,0.00,,OVC049,0.00,VWS V13.01,2013-01-04 16:32:00,
2013-01-04 11:37:00,35.8,8.8,29.76,North,0,0.0,0.0,32,0.00,,OVC049,0.00,VWS V13.01,2013-01-04 16:37:00,
2013-01-04 11:42:00,35.8,8.8,29.76,North,0,0.0,0.0,32,0.00,,OVC049,0.00,VWS V13.01,2013-01-04 16:42:00,
2013-01-04 11:47:00,36.0,9.0,29.76,North,0,0.0,0.0,32,0.00,,OVC049,0.00,VWS V13.01,2013-01-04 16:47:00,
2013-01-04 11:52:00,36.0,8.3,29.76,North,0,0.0,0.0,31,0.00,,OVC100,0.00,VWS V13.01,2013-01-04 16:52:00,
2013-01-04 11:57:00,36.3,8.6,29.76,North,0,0.0,0.0,31,0.00,,OVC100,0.00,VWS V13.01,2013-01-04 16:57:00,
2013-01-04 12:02:00,37.0,9.9,29.76,North,0,0.0,0.0,32,0.00,,OVC100,0.00,VWS V13.01,2013-01-04 17:02:00,
2013-01-04 12:07:00,37.0,9.2,29.76,North,0,0.0,0.0,31,0.00,,OVC100,0.00,VWS V13.01,2013-01-04 17:07:00,
2013-01-04 12:12:00,37.0,9.2,29.76,North,0,0.0,0.0,31,0.00,,OVC100,0.00,VWS V13.01,2013-01-04 17:12:00,
2013-01-04 12:17:00,36.7,8.9,29.76,North,0,0.0,0.0,31,0.00,,OVC100,0.00,VWS V13.01,2013-01-04 17:17:00,
2013-01-04 12:22:00,36.9,9.1,29.76,North,0,0.0,0.0,31,0.00,,OVC100,0.00,VWS V13.01,2013-01-04 17:22:00,
2013-01-04 12:27:00,37.2,9.4,29.76,North,0,0.0,0.0,31,0.00,,OVC100,0.00,VWS V13.01,2013-01-04 17:27:00,
2013-01-04 12:32:00,37.8,9.9,29.76,North,0,0.0,0.0,31,0.00,,OVC049,0.00,VWS V13.01,2013-01-04 17:32:00,
2013-01-04 12:37:00,38.1,9.4,29.76,North,0,0.0,0.0,30,0.00,,OVC049,0.00,VWS V13.01,2013-01-04 17:37:00,
2013-01-04 12:42:00,37.9,9.3,29.76,North,0,0.0,0.0,30,0.00,,OVC049,0.00,VWS V13.01,2013-01-04 17:42:00,
2013-01-04 12:47:00,37.8,9.1,29.76,North,0,0.0,0.0,30,0.00,,OVC049,0.00,VWS V13.01,2013-01-04 17:47:00,
2013-01-04 12:52:00,37.4,8.8,29.76,North,0,0.0,0.0,30,0.00,,FEW045,0.00,VWS V13.01,2013-01-04 17:52:00,
2013-01-04 12:57:00,37.0,8.5,29.76,North,0,0.0,0.0,30,0.00,,FEW045,0.00,VWS V13.01,2013-01-04 17:57:00,
2013-01-04 13:02:00,36.7,8.2,29.76,North,0,0.0,0.0,30,0.00,,FEW045,0.00,VWS V13.01,2013-01-04 18:02:00,
2013-01-04 13:07:00,36.7,8.2,29.76,North,0,0.0,0.0,30,0.00,,FEW045,0.00,VWS V13.01,2013-01-04 18:07:00,
2013-01-04 13:12:00,36.7,8.9,29.76,North,0,0.0,0.0,31,0.00,,FEW045,0.00,VWS V13.01,2013-01-04 18:12:00,
2013-01-04 13:17:00,36.3,8.6,29.76,North,0,0.0,0.0,31,0.00,,FEW045,0.00,VWS V13.01,2013-01-04 18:17:00,
2013-01-04 13:22:00,36.3,8.6,29.73,North,0,0.0,0.0,31,0.00,,FEW045,0.00,VWS V13.01,2013-01-04 18:22:00,
2013-01-04 13:27:00,36.1,7.7,29.73,North,0,0.0,0.0,30,0.00,,FEW045,0.00,VWS V13.01,2013-01-04 18:27:00,
2013-01-04 13:32:00,36.1,8.4,29.73,North,0,0.0,0.0,31,0.00,,CLR,0.00,VWS V13.01,2013-01-04 18:32:00,
2013-01-04 13:38:00,36.1,7.7,29.73,North,0,0.0,0.0,30,0.00,,CLR,0.00,VWS V13.01,2013-01-04 18:38:00,
2013-01-04 13:43:00,36.1,8.4,29.73,North,0,0.0,0.0,31,0.00,,CLR,0.00,VWS V13.01,2013-01-04 18:43:00,
2013-01-04 13:48:00,36.1,8.4,29.73,North,0,0.0,0.0,31,0.00,,CLR,0.00,VWS V13.01,2013-01-04 18:48:00,
2013-01-04 13:53:00,36.3,8.6,29.73,North,0,0.0,0.0,31,0.00,,CLR,0.00,VWS V13.01,2013-01-04 18:53:00,
2013-01-04 13:58:00,36.3,8.6,29.73,North,0,0.0,0.0,31,0.00,,CLR,0.00,VWS V13.01,2013-01-04 18:58:00,
2013-01-04 14:03:00,36.1,8.4,29.73,North,0,0.0,0.0,31,0.00,,CLR,0.00,VWS V13.01,2013-01-04 19:03:00,
2013-01-04 14:08:00,36.0,8.3,29.73,North,0,0.0,0.0,31,0.00,,CLR,0.00,VWS V13.01,2013-01-04 19:08:00,
2013-01-04 14:13:00,35.8,7.4,29.73,North,0,0.0,0.0,30,0.00,,CLR,0.00,VWS V13.01,2013-01-04 19:13:00,
2013-01-04 14:18:00,35.8,8.1,29.73,North,0,0.0,0.0,31,0.00,,CLR,0.00,VWS V13.01,2013-01-04 19:18:00,
2013-01-04 14:23:00,35.8,8.1,29.73,North,0,0.0,0.0,31,0.00,,CLR,0.00,VWS V13.01,2013-01-04 19:23:00,
2013-01-04 14:28:00,35.6,8.0,29.73,North,0,0.0,0.0,31,0.00,,CLR,0.00,VWS V13.01,2013-01-04 19:28:00,
2013-01-04 14:33:00,35.6,8.0,29.73,North,0,0.0,0.0,31,0.00,,CLR,0.00,VWS V13.01,2013-01-04 19:33:00,
2013-01-04 14:38:00,35.8,8.1,29.73,North,0,0.0,0.0,31,0.00,,CLR,0.00,VWS V13.01,2013-01-04 19:38:00,
2013-01-04 14:43:00,35.8,8.1,29.73,North,0,0.0,0.0,31,0.00,,CLR,0.00,VWS V13.01,2013-01-04 19:43:00,
2013-01-04 14:48:00,36.1,8.4,29.73,North,0,0.0,0.0,31,0.00,,CLR,0.00,VWS V13.01,2013-01-04 19:48:00,
2013-01-04 14:53:00,35.8,8.1,29.73,North,0,0.0,0.0,31,0.00,,CLR,0.00,VWS V13.01,2013-01-04 19:53:00,
2013-01-04 14:58:00,35.6,8.0,29.73,North,0,0.0,0.0,31,0.00,,CLR,0.00,VWS V13.01,2013-01-04 19:58:00,
2013-01-04 15:03:00,35.4,7.8,29.73,North,0,0.0,0.0,31,0.00,,CLR,0.00,VWS V13.01,2013-01-04 20:03:00,
2013-01-04 15:08:00,35.2,7.7,29.73,North,0,0.0,0.0,31,0.00,,CLR,0.00,VWS V13.01,2013-01-04 20:08:00,
2013-01-04 15:13:00,35.1,7.5,29.73,North,0,0.0,0.0,31,0.00,,CLR,0.00,VWS V13.01,2013-01-04 20:13:00,
2013-01-04 15:18:00,35.1,7.5,29.73,North,0,0.0,0.0,31,0.00,,CLR,0.00,VWS V13.01,2013-01-04 20:18:00,
2013-01-04 15:23:00,34.9,7.3,29.73,North,0,0.0,0.0,31,0.00,,CLR,0.00,VWS V13.01,2013-01-04 20:23:00,
2013-01-04 15:28:00,34.9,7.3,29.73,North,0,0.0,0.0,31,0.00,,CLR,0.00,VWS V13.01,2013-01-04 20:28:00,
2013-01-04 15:33:00,34.9,7.3,29.73,North,0,0.0,0.0,31,0.00,,CLR,0.00,VWS V13.01,2013-01-04 20:33:00,
2013-01-04 15:38:00,34.9,7.3,29.76,North,0,0.0,0.0,31,0.00,,CLR,0.00,VWS V13.01,2013-01-04 20:38:00,
2013-01-04 15:43:00,34.9,7.3,29.76,North,0,0.0,0.0,31,0.00,,CLR,0.00,VWS V13.01,2013-01-04 20:43:00,
2013-01-04 15:48:00,34.7,7.2,29.76,North,0,0.0,0.0,31,0.00,,CLR,0.00,VWS V13.01,2013-01-04 20:48:00,
2013-01-04 15:53:00,34.5,7.0,29.76,North,0,0.0,0.0,31,0.00,,OVC060,0.00,VWS V13.01,2013-01-04 20:53:00,
2013-01-04 15:58:00,34.5,7.0,29.76,North,0,0.0,0.0,31,0.00,,OVC060,0.00,VWS V13.01,2013-01-04 20:58:00,
2013-01-04 16:03:00,34.3,7.6,29.76,North,0,0.0,0.0,32,0.00,,OVC060,0.00,VWS V13.01,2013-01-04 21:03:00,
2013-01-04 16:08:00,34.2,7.4,29.73,North,0,0.0,0.0,32,0.00,,OVC060,0.00,VWS V13.01,2013-01-04 21:08:00,
2013-01-04 16:13:00,34.0,7.2,29.73,North,0,0.0,0.0,32,0.00,,OVC060,0.00,VWS V13.01,2013-01-04 21:13:00,
2013-01-04 16:18:00,34.2,7.4,29.73,North,0,0.0,0.0,32,0.00,,OVC060,0.00,VWS V13.01,2013-01-04 21:18:00,
2013-01-04 16:23:00,33.8,7.1,29.73,North,0,0.0,0.0,32,0.00,,OVC060,0.00,VWS V13.01,2013-01-04 21:23:00,
2013-01-04 16:28:00,33.8,7.1,29.73,North,0,0.0,0.0,32,0.00,,OVC060,0.00,VWS V13.01,2013-01-04 21:28:00,
2013-01-04 16:33:00,33.6,6.9,29.73,North,0,0.0,0.0,32,0.00,,BKN046,0.00,VWS V13.01,2013-01-04 21:33:00,
2013-01-04 16:38:00,33.6,6.9,29.76,North,0,0.0,0.0,32,0.00,,BKN046,0.00,VWS V13.01,2013-01-04 21:38:00,
2013-01-04 16:43:00,33.6,6.9,29.76,North,0,0.0,0.0,32,0.00,,BKN046,0.00,VWS V13.01,2013-01-04 21:43:00,
2013-01-04 16:48:00,33.8,7.1,29.76,North,0,0.0,0.0,32,0.00,,BKN046,0.00,VWS V13.01,2013-01-04 21:48:00,
2013-01-04 16:53:00,33.6,6.9,29.76,North,0,0.0,0.0,32,0.00,,BKN046,0.00,VWS V13.01,2013-01-04 21:53:00,
2013-01-04 16:58:00,33.6,6.9,29.76,North,0,0.0,0.0,32,0.00,,BKN046,0.00,VWS V13.01,2013-01-04 21:58:00,
2013-01-04 17:03:00,33.6,6.9,29.76,North,0,0.0,0.0,32,0.00,,BKN046,0.00,VWS V13.01,2013-01-04 22:03:00,
2013-01-04 17:08:00,33.6,6.9,29.76,North,0,0.0,0.0,32,0.00,,BKN046,0.00,VWS V13.01,2013-01-04 22:08:00,
2013-01-04 17:13:00,33.6,6.9,29.76,North,0,0.0,0.0,32,0.00,,BKN046,0.00,VWS V13.01,2013-01-04 22:13:00,
2013-01-04 17:18:00,33.6,6.9,29.76,North,0,0.0,0.0,32,0.00,,BKN046,0.00,VWS V13.01,2013-01-04 22:18:00,
2013-01-04 17:23:00,33.6,6.9,29.76,North,0,0.0,0.0,32,0.00,,BKN046,0.00,VWS V13.01,2013-01-04 22:23:00,
2013-01-04 17:28:00,33.6,6.9,29.76,North,0,0.0,0.0,32,0.00,,BKN046,0.00,VWS V13.01,2013-01-04 22:28:00,
2013-01-04 17:33:00,33.6,6.9,29.76,North,0,0.0,0.0,32,0.00,,OVC048,0.00,VWS V13.01,2013-01-04 22:33:00,
2013-01-04 17:38:00,33.6,6.9,29.76,North,0,0.0,0.0,32,0.00,,OVC048,0.00,VWS V13.01,2013-01-04 22:38:00,
2013-01-04 17:43:00,33.8,7.1,29.76,North,0,0.0,0.0,32,0.00,,OVC048,0.00,VWS V13.01,2013-01-04 22:43:00,
2013-01-04 17:48:00,33.4,6.8,29.76,North,0,0.0,0.0,32,0.00,,OVC048,0.00,VWS V13.01,2013-01-04 22:48:00,
2013-01-04 17:53:00,33.4,7.4,29.76,North,0,0.0,0.0,33,0.00,,OVC044,0.00,VWS V13.01,2013-01-04 22:53:00,
2013-01-04 17:58:00,33.6,6.9,29.76,North,0,0.0,0.0,32,0.00,,OVC044,0.00,VWS V13.01,2013-01-04 22:58:00,
2013-01-04 18:04:00,33.6,6.9,29.76,North,0,0.0,0.0,32,0.00,,OVC044,0.00,VWS V13.01,2013-01-04 23:04:00,
2013-01-04 18:09:00,33.4,6.8,29.76,North,0,0.0,0.0,32,0.00,,OVC044,0.00,VWS V13.01,2013-01-04 23:09:00,
2013-01-04 18:14:00,33.4,6.8,29.76,North,0,0.0,0.0,32,0.00,,OVC044,0.00,VWS V13.01,2013-01-04 23:14:00,
2013-01-04 18:19:00,33.4,6.8,29.76,North,0,0.0,0.0,32,0.00,,OVC044,0.00,VWS V13.01,2013-01-04 23:19:00,
2013-01-04 18:24:00,33.3,6.6,29.76,North,0,0.0,0.0,32,0.00,,OVC044,0.00,VWS V13.01,2013-01-04 23:24:00,
2013-01-04 18:29:00,33.3,6.6,29.76,North,0,0.0,0.0,32,0.00,,OVC044,0.00,VWS V13.01,2013-01-04 23:29:00,
2013-01-04 18:34:00,33.3,7.3,29.76,North,0,0.0,0.0,33,0.00,,OVC044,0.00,VWS V13.01,2013-01-04 23:34:00,
2013-01-04 18:39:00,33.3,6.6,29.76,North,0,0.0,0.0,32,0.00,,OVC044,0.00,VWS V13.01,2013-01-04 23:39:00,
2013-01-04 18:44:00,33.3,6.6,29.76,North,0,0.0,0.0,32,0.00,,OVC044,0.00,VWS V13.01,2013-01-04 23:44:00,
2013-01-04 18:49:00,33.3,6.6,29.76,North,0,0.0,0.0,32,0.00,,OVC044,0.00,VWS V13.01,2013-01-04 23:49:00,
2013-01-04 18:54:00,33.3,7.3,29.76,North,0,0.0,0.0,33,0.00,,OVC044,0.00,VWS V13.01,2013-01-04 23:54:00,
2013-01-04 18:59:00,33.3,7.3,29.76,North,0,0.0,0.0,33,0.00,,OVC044,0.00,VWS V13.01,2013-01-04 23:59:00,
2013-01-04 19:04:00,33.3,6.6,29.76,North,0,0.0,0.0,32,0.00,,OVC044,0.00,VWS V13.01,2013-01-05 00:04:00,
2013-01-04 19:09:00,33.3,6.6,29.76,North,0,0.0,0.0,32,0.00,,OVC044,0.00,VWS V13.01,2013-01-05 00:09:00,
2013-01-04 19:14:00,33.4,6.8,29.76,North,0,0.0,0.0,32,0.00,,OVC046,0.00,VWS V13.01,2013-01-05 00:14:00,
2013-01-04 19:19:00,33.3,6.6,29.76,North,0,0.0,0.0,32,0.00,,OVC046,0.00,VWS V13.01,2013-01-05 00:19:00,
2013-01-04 19:24:00,33.3,6.6,29.76,North,0,0.0,0.0,32,0.00,,OVC046,0.00,VWS V13.01,2013-01-05 00:24:00,
2013-01-04 19:29:00,33.3,6.6,29.76,North,0,0.0,0.0,32,0.00,,OVC046,0.00,VWS V13.01,2013-01-05 00:29:00,
2013-01-04 19:34:00,33.3,6.6,29.76,North,0,0.0,0.0,32,0.00,,OVC046,0.00,VWS V13.01,2013-01-05 00:34:00,
2013-01-04 19:39:00,33.3,6.6,29.76,North,0,0.0,0.0,32,0.00,,OVC046,0.00,VWS V13.01,2013-01-05 00:39:00,
2013-01-04 19:44:00,33.1,6.4,29.76,North,0,0.0,0.0,32,0.00,,OVC046,0.00,VWS V13.01,2013-01-05 00:44:00,
2013-01-04 19:49:00,33.1,6.4,29.76,North,0,0.0,0.0,32,0.00,,OVC046,0.00,VWS V13.01,2013-01-05 00:49:00,
2013-01-04 19:54:00,33.1,6.4,29.76,North,0,0.0,0.0,32,0.00,,OVC046,0.00,VWS V13.01,2013-01-05 00:54:00,
2013-01-04 19:59:00,33.3,6.6,29.76,North,0,0.0,0.0,32,0.00,,OVC046,0.00,VWS V13.01,2013-01-05 00:59:00,
2013-01-04 20:04:00,33.3,6.6,29.76,North,0,0.0,0.0,32,0.00,,OVC046,0.00,VWS V13.01,2013-01-05 01:04:00,
2013-01-04 20:09:00,33.3,6.6,29.76,North,0,0.0,0.0,32,0.00,,OVC046,0.00,VWS V13.01,2013-01-05 01:09:00,
2013-01-04 20:14:00,33.1,6.4,29.76,North,0,0.0,0.0,32,0.00,,OVC046,0.00,VWS V13.01,2013-01-05 01:14:00,
2013-01-04 20:19:00,33.1,6.4,29.76,North,0,0.0,0.0,32,0.00,,OVC046,0.00,VWS V13.01,2013-01-05 01:19:00,
2013-01-04 20:24:00,33.1,6.4,29.76,North,0,0.0,0.0,32,0.00,,OVC046,0.00,VWS V13.01,2013-01-05 01:24:00,
2013-01-04 20:29:00,33.1,6.4,29.76,North,0,0.0,0.0,32,0.00,,OVC046,0.00,VWS V13.01,2013-01-05 01:29:00,
2013-01-04 20:34:00,33.3,6.6,29.76,North,0,0.0,0.0,32,0.00,,OVC044,0.00,VWS V13.01,2013-01-05 01:34:00,
2013-01-04 20:39:00,33.3,6.6,29.76,North,0,0.0,0.0,32,0.00,,OVC044,0.00,VWS V13.01,2013-01-05 01:39:00,
2013-01-04 20:44:00,33.1,6.4,29.76,North,0,0.0,0.0,32,0.00,,OVC044,0.00,VWS V13.01,2013-01-05 01:44:00,
2013-01-04 20:49:00,33.1,6.4,29.76,North,0,0.0,0.0,32,0.00,,OVC044,0.00,VWS V13.01,2013-01-05 01:49:00,
2013-01-04 20:54:00,33.1,6.4,29.76,North,0,0.0,0.0,32,0.00,,OVC044,0.00,VWS V13.01,2013-01-05 01:54:00,
2013-01-04 20:59:00,33.1,6.4,29.76,North,0,0.0,0.0,32,0.00,,OVC044,0.00,VWS V13.01,2013-01-05 01:59:00,
2013-01-04 21:05:00,33.1,6.4,29.76,North,0,0.0,0.0,32,0.00,,OVC044,0.00,VWS V13.01,2013-01-05 02:05:00,
2013-01-04 21:10:00,33.1,6.4,29.76,North,0,0.0,0.0,32,0.00,,OVC044,0.00,VWS V13.01,2013-01-05 02:10:00,
2013-01-04 21:15:00,33.1,6.4,29.76,North,0,0.0,0.0,32,0.00,,OVC044,0.00,VWS V13.01,2013-01-05 02:15:00,
2013-01-04 21:20:00,33.3,6.6,29.76,North,0,0.0,0.0,32,0.00,,OVC044,0.00,VWS V13.01,2013-01-05 02:20:00,
2013-01-04 21:25:00,33.3,6.6,29.76,North,0,0.0,0.0,32,0.00,,OVC044,0.00,VWS V13.01,2013-01-05 02:25:00,
2013-01-04 21:30:00,33.3,6.6,29.76,North,0,0.0,0.0,32,0.00,,OVC044,0.00,VWS V13.01,2013-01-05 02:30:00,
2013-01-04 21:35:00,33.1,6.4,29.76,North,0,0.0,0.0,32,0.00,,OVC044,0.00,VWS V13.01,2013-01-05 02:35:00,
2013-01-04 21:40:00,33.1,6.4,29.76,North,0,0.0,0.0,32,0.00,,OVC044,0.00,VWS V13.01,2013-01-05 02:40:00,
2013-01-04 21:45:00,32.9,6.3,29.76,North,0,0.0,0.0,32,0.00,,OVC044,0.00,VWS V13.01,2013-01-05 02:45:00,
2013-01-04 21:50:00,32.9,6.3,29.76,North,0,0.0,0.0,32,0.00,,OVC044,0.00,VWS V13.01,2013-01-05 02:50:00,
2013-01-04 21:55:00,32.7,6.1,29.76,North,0,0.0,0.0,32,0.00,,OVC044,0.00,VWS V13.01,2013-01-05 02:55:00,
2013-01-04 22:00:00,32.7,6.1,29.76,North,0,0.0,0.0,32,0.00,,OVC044,0.00,VWS V13.01,2013-01-05 03:00:00,
2013-01-04 22:05:00,32.9,6.3,29.76,North,0,0.0,0.0,32,0.00,,OVC044,0.00,VWS V13.01,2013-01-05 03:05:00,
2013-01-04 22:10:00,32.9,6.3,29.76,North,0,0.0,0.0,32,0.00,,OVC044,0.00,VWS V13.01,2013-01-05 03:10:00,
2013-01-04 22:15:00,32.9,6.3,29.76,North,0,0.0,0.0,32,0.00,,OVC044,0.00,VWS V13.01,2013-01-05 03:15:00,
2013-01-04 22:20:00,32.9,6.3,29.76,North,0,0.0,0.0,32,0.00,,OVC044,0.00,VWS V13.01,2013-01-05 03:20:00,
2013-01-04 22:25:00,32.7,6.1,29.79,North,0,0.0,0.0,32,0.00,,OVC044,0.00,VWS V13.01,2013-01-05 03:25:00,
2013-01-04 22:30:00,32.7,6.1,29.79,North,0,0.0,0.0,32,0.00,,OVC044,0.00,VWS V13.01,2013-01-05 03:30:00,
2013-01-04 22:35:00,32.7,6.1,29.79,North,0,0.0,0.0,32,0.00,,OVC046,0.00,VWS V13.01,2013-01-05 03:35:00,
2013-01-04 22:40:00,32.5,6.0,29.76,North,0,0.0,0.0,32,0.00,,OVC046,0.00,VWS V13.01,2013-01-05 03:40:00,
2013-01-04 22:45:00,32.5,6.0,29.76,North,0,0.0,0.0,32,0.00,,OVC046,0.00,VWS V13.01,2013-01-05 03:45:00,
2013-01-04 22:50:00,32.5,6.6,29.76,North,0,0.0,0.0,33,0.00,,OVC046,0.00,VWS V13.01,2013-01-05 03:50:00,
2013-01-04 22:55:00,32.5,6.6,29.79,North,0,0.0,0.0,33,0.00,,OVC046,0.00,VWS V13.01,2013-01-05 03:55:00,
2013-01-04 23:00:00,32.5,6.6,29.79,North,0,0.0,0.0,33,0.00,,OVC046,0.00,VWS V13.01,2013-01-05 04:00:00,
2013-01-04 23:05:00,32.4,6.5,29.79,North,0,0.0,0.0,33,0.00,,OVC046,0.00,VWS V13.01,2013-01-05 04:05:00,
2013-01-04 23:10:00,32.4,6.5,29.79,North,0,0.0,0.0,33,0.00,,OVC046,0.00,VWS V13.01,2013-01-05 04:10:00,
2013-01-04 23:15:00,32.2,6.3,29.79,North,0,0.0,0.0,33,0.00,,OVC046,0.00,VWS V13.01,2013-01-05 04:15:00,
2013-01-04 23:20:00,32.4,6.5,29.79,North,0,0.0,0.0,33,0.00,,OVC046,0.00,VWS V13.01,2013-01-05 04:20:00,
2013-01-04 23:25:00,32.2,7.0,29.79,North,0,0.0,0.0,34,0.00,,OVC046,0.00,VWS V13.01,2013-01-05 04:25:00,
2013-01-04 23:30:00,32.2,7.0,29.79,North,0,0.0,0.0,34,0.00,,OVC046,0.00,VWS V13.01,2013-01-05 04:30:00,
2013-01-04 23:35:00,32.2,7.0,29.79,North,0,0.0,0.0,34,0.00,,OVC042,0.00,VWS V13.01,2013-01-05 04:35:00,
2013-01-04 23:40:00,32.2,7.0,29.76,North,0,0.0,0.0,34,0.00,,OVC042,0.00,VWS V13.01,2013-01-05 04:40:00,
2013-01-04 23:45:00,32.2,7.0,29.76,North,0,0.0,0.0,34,0.00,,OVC042,0.00,VWS V13.01,2013-01-05 04:45:00,
2013-01-04 23:50:00,32.2,7.0,29.76,North,0,0.0,0.0,34,0.00,,OVC042,0.00,VWS V13.01,2013-01-05 04:50:00,
2013-01-04 23:55:00,32.2,7.0,29.79,North,0,0.0,0.0,34,0.00,,OVC040,0.00,VWS V13.01,2013-01-05 04:55:00,